DateTimeUTC,F1_A11,F1_S11,BsB_S11,BsG_S11,BsR_S11,BbsB_S11,BbsG_S11,BbsR_S11,BaB_A11,BaG_A11,BaR_A11,Tu_S11,T_S11,Uu_S11,U_S11,P_S11,T1_A11
2021-06-21T10:00:00Z,00000200,20000000,,,,,,,0000.63,0000.53,-000.02,17.4,24.4,01.7,01.1,0666.6,31.0
2021-06-21T10:01:00Z,00000200,20000000,,,,,,,0000.09,0000.13,0000.67,17.5,24.4,01.7,01.1,0666.7,31.0
2021-06-21T10:02:00Z,00000200,20000000,,,,,,,0000.46,0000.61,0000.13,17.5,24.5,01.7,01.1,0666.7,31.0
2021-06-21T10:03:00Z,00000200,60000000,,,,,,,0001.04,0001.21,0000.65,17.5,24.5,01.7,01.1,0666.7,31.0
2021-06-21T10:04:00Z,00000200,40000000,0000.57,0000.24,-000.03,0000.64,0000.04,0000.10,0001.23,0000.76,0000.81,17.8,24.4,02.0,01.4,0667.6,31.0
2021-06-21T10:05:00Z,00000200,01000000,0001.01,0000.56,0000.30,0000.14,0000.38,-000.09,0000.50,0000.63,0000.51,17.8,24.3,02.0,01.3,0667.7,31.0
2021-06-21T10:06:00Z,00000200,00000000,0000.81,0000.55,0000.49,0000.33,0000.06,0000.14,0004.89,0004.27,0003.08,17.8,24.3,02.2,01.5,0667.7,31.0
2021-06-21T10:07:00Z,00000200,00000000,0001.64,0000.92,0000.23,0000.18,0000.52,0000.07,0011.27,0009.95,0007.85,17.8,24.3,02.1,01.4,0667.7,31.0
2021-06-21T10:08:00Z,00000200,00000000,0003.27,0002.16,0001.33,0000.53,0000.71,0000.40,0015.32,0013.71,0010.83,17.7,24.3,02.3,01.6,0667.6,31.0
2021-06-21T10:09:00Z,00000200,00000000,0002.56,0001.89,0000.92,0000.54,0000.37,0000.38,0008.51,0008.12,0006.07,17.7,24.2,02.4,01.6,0667.6,31.0
2021-06-21T10:10:00Z,00000200,00000000,0001.97,0001.17,0000.77,-000.18,-000.01,0000.11,0006.28,0005.43,0003.84,17.7,24.2,02.5,01.7,0667.7,31.0
2021-06-21T10:11:00Z,00000200,00000000,0000.54,0000.36,0000.44,-000.29,0000.26,0000.04,0000.61,0000.70,0000.40,17.7,24.2,02.5,01.7,0667.6,30.9
2021-06-21T10:12:00Z,00000200,00000000,0001.02,0000.21,0000.48,0000.13,0000.08,0000.27,0000.67,0000.40,0000.79,17.6,24.2,02.5,01.7,0667.6,30.9
2021-06-21T10:13:00Z,00000200,00000000,0000.08,0000.20,0000.49,0000.30,0000.01,0000.20,0000.68,0000.38,-000.23,17.6,24.2,02.6,01.8,0667.6,31.0
2021-06-21T10:14:00Z,00000200,00000000,0000.73,0000.14,0000.17,0000.14,-000.15,0000.06,-000.04,0000.26,0000.42,17.6,24.2,02.6,01.8,0667.6,31.0
2021-06-21T10:15:00Z,00000200,00000000,0000.77,0000.36,0000.65,0000.01,0000.23,0000.19,0001.31,0001.13,0000.86,17.7,24.2,02.7,01.8,0667.6,31.0
2021-06-21T10:16:00Z,00000200,00000000,0001.50,0000.86,0000.54,0000.18,0000.47,0000.14,0005.48,0005.12,0003.87,17.8,24.3,02.8,01.9,0667.7,31.0
2021-06-21T10:17:00Z,00000200,00000000,0006.34,0005.03,0003.58,0001.10,0001.13,0000.77,0054.67,0050.64,0041.06,17.9,24.3,02.6,01.8,0667.6,31.0
2021-06-21T10:18:00Z,00000200,00000000,0005.97,0004.84,0003.40,0001.01,0000.78,0000.68,0062.45,0057.98,0046.90,18.0,24.3,02.8,01.9,0667.7,31.0
2021-06-21T10:19:00Z,00000200,00000000,0001.47,0001.07,0000.78,0000.73,0000.05,0000.25,0014.14,0013.58,0010.93,18.0,24.4,02.9,01.9,0667.7,31.0
2021-06-21T10:20:00Z,00000200,00000000,0000.67,0000.66,0000.13,-000.24,0000.26,-000.10,0008.11,0006.89,0005.46,18.0,24.4,02.8,01.9,0667.7,31.0
2021-06-21T10:21:00Z,00000200,00000000,0001.32,0000.52,0000.45,0000.62,0000.13,0000.13,0004.82,0004.26,0003.26,18.0,24.4,02.7,01.8,0667.7,31.0
2021-06-21T10:22:00Z,00000200,00000000,0001.28,0000.37,0000.49,0000.26,0000.06,0000.33,0006.72,0005.98,0004.52,17.9,24.3,02.8,01.9,0667.7,31.0
2021-06-21T10:23:00Z,00000200,00000000,0000.16,0000.18,0000.46,0000.58,0000.02,0000.00,0003.37,0002.97,0002.18,17.9,24.3,02.8,01.9,0667.7,31.0
2021-06-21T10:24:00Z,00000200,00000000,0000.93,0000.47,0000.51,0000.02,-000.05,-000.13,0002.60,0002.34,0001.82,17.9,24.3,02.9,01.9,0667.7,31.0
2021-06-21T10:25:00Z,00000200,00000000,0000.15,0000.43,0000.54,-000.17,0000.12,0000.24,0004.00,0003.77,0002.95,17.9,24.3,02.9,02.0,0667.7,31.0
2021-06-21T10:26:00Z,00000200,00000000,0001.14,0000.71,0000.30,0000.57,0000.42,-000.01,0005.51,0004.87,0003.63,17.8,24.3,03.0,02.0,0667.7,31.0
2021-06-21T10:27:00Z,00000200,00000000,0000.73,0000.34,0000.38,0000.10,0000.02,0000.02,0002.76,0002.35,0001.82,17.8,24.3,03.1,02.1,0667.7,31.0
2021-06-21T10:28:00Z,00000200,00000000,0000.92,0000.46,0000.45,-000.36,0000.22,-000.01,0001.23,0001.57,0001.12,17.8,24.2,03.0,02.0,0667.6,31.0
2021-06-21T10:29:00Z,00000200,00000000,0000.73,0000.49,0000.44,0000.35,-000.03,-000.23,0002.11,0001.59,0001.25,17.8,24.3,03.1,02.1,0667.7,31.0
2021-06-21T10:30:00Z,00000200,00000000,0000.54,0000.24,0000.33,0000.39,-000.02,0000.22,0008.36,0007.92,0006.01,17.9,24.3,03.0,02.0,0667.7,31.0
2021-06-21T10:31:00Z,00000200,00000000,0000.34,0000.73,0000.23,0000.39,-000.11,0000.08,0004.30,0003.49,0002.90,18.0,24.4,03.0,02.0,0667.7,31.0
2021-06-21T10:32:00Z,00000200,00000000,0001.03,0000.40,0000.32,0000.25,0000.05,-000.15,0001.47,0001.50,0001.16,18.1,24.4,03.0,02.0,0667.7,31.1
2021-06-21T10:33:00Z,00000200,00000000,0001.06,0000.20,0000.56,-000.11,0000.34,-000.10,0000.92,0000.87,0000.49,18.2,24.5,03.1,02.1,0667.7,31.0
2021-06-21T10:34:00Z,00000200,00000000,-000.07,0000.30,0000.29,-000.11,0000.32,-000.11,0000.45,0000.54,0000.41,18.2,24.5,03.1,02.1,0667.7,31.0
2021-06-21T10:35:00Z,00000200,00000000,0001.32,0000.43,0000.20,0000.47,0000.07,0000.11,0000.97,0000.65,0000.62,18.2,24.5,03.2,02.1,0667.7,31.0
2021-06-21T10:36:00Z,00000200,00000000,0000.17,0000.36,0000.53,-000.05,0000.10,0000.14,0000.70,0000.99,0000.16,18.2,24.5,03.1,02.1,0667.7,31.0
2021-06-21T10:37:00Z,00000200,00000000,0000.62,0000.59,0000.53,0000.11,0000.05,0000.22,0000.83,0000.38,0000.62,18.1,24.5,03.1,02.1,0667.7,31.0
2021-06-21T10:38:00Z,00000200,00000000,0000.74,0000.50,0000.39,0000.35,-000.06,0000.04,0002.58,0002.29,0001.49,18.1,24.4,03.1,02.1,0667.6,31.0
2021-06-21T10:39:00Z,00000200,00000000,0000.94,0000.70,0000.47,0000.41,0000.31,0000.40,0000.52,0000.27,0000.38,18.1,24.4,03.1,02.1,0667.6,31.0
2021-06-21T10:40:00Z,00000200,00000000,0000.68,0000.56,0000.34,0000.18,0000.02,0000.16,0000.31,0000.22,0000.53,18.1,24.4,03.0,02.0,0667.6,31.0
2021-06-21T10:41:00Z,00000200,00000000,0000.69,0000.57,0000.33,0000.37,0000.21,0000.10,0000.28,0000.96,0000.26,18.0,24.4,03.2,02.1,0667.6,31.0
2021-06-21T10:42:00Z,00000200,00000000,0000.44,0000.44,0000.40,0000.03,0000.27,0000.18,0000.60,0000.39,0000.44,18.0,24.4,03.1,02.1,0667.6,31.0
2021-06-21T10:43:00Z,00000200,00000000,0000.66,0000.54,0000.43,0000.12,0000.26,0000.12,0000.27,-000.09,0000.15,18.0,24.4,03.1,02.1,0667.7,31.0
2021-06-21T10:44:00Z,00000200,00000000,0000.44,0000.56,0000.10,0000.23,0000.12,0000.10,0000.59,0000.26,0000.25,18.0,24.4,03.2,02.2,0667.7,31.0
2021-06-21T10:45:00Z,00000200,00000000,0000.34,0000.60,0000.24,0000.28,0000.06,-000.05,0000.55,0000.71,0000.24,18.1,24.4,03.1,02.1,0667.7,31.0
2021-06-21T10:46:00Z,00000200,00000000,0001.17,0000.64,0000.76,0000.06,0000.24,0000.20,-000.05,0000.17,0000.32,18.1,24.4,03.1,02.1,0667.7,31.0
2021-06-21T10:47:00Z,00000200,00000000,0001.32,0000.39,0000.16,0000.05,-000.02,0000.41,0000.08,0000.07,0000.17,18.2,24.4,03.2,02.1,0667.7,31.1
2021-06-21T10:48:00Z,00000200,00000000,0000.42,0000.76,0000.71,0000.01,0000.32,0000.28,0000.45,0000.57,0000.28,18.2,24.5,03.0,02.0,0667.7,31.1
2021-06-21T10:49:00Z,00000200,00000000,0001.25,0000.47,0000.75,0000.47,0000.11,-000.23,0000.83,0000.35,0000.29,18.2,24.5,03.1,02.1,0667.7,31.0
2021-06-21T10:50:00Z,00000200,00000000,0000.60,0000.31,0000.50,0000.56,0000.01,-000.09,-000.04,0000.11,-000.18,18.2,24.4,03.1,02.1,0667.6,31.0
2021-06-21T10:51:00Z,00000200,00000000,0001.19,0000.15,0000.55,0000.10,-000.04,0000.25,0000.57,0000.22,0000.57,18.1,24.4,03.1,02.1,0667.6,31.0
2021-06-21T10:52:00Z,00000200,00000000,0000.42,0000.31,0000.49,0000.26,-000.17,0000.04,0000.31,0000.58,0000.20,18.1,24.4,03.1,02.1,0667.6,31.0
2021-06-21T10:53:00Z,00000200,00000000,0000.67,0000.56,0000.42,0000.20,0000.21,0000.32,0000.50,0000.04,0000.09,18.1,24.4,03.0,02.1,0667.6,31.0
2021-06-21T10:54:00Z,00000200,00000000,0000.80,0000.59,0000.36,-000.20,0000.15,0000.10,0000.66,0000.77,0000.98,18.1,24.4,03.2,02.2,0667.6,31.0
2021-06-21T10:55:00Z,00000200,00000000,0000.88,0000.63,0000.24,0000.10,0000.07,-000.01,0000.21,0000.56,0000.11,18.1,24.3,03.2,02.2,0667.6,31.0
2021-06-21T10:56:00Z,00000200,00000000,0000.72,0000.44,0000.42,0000.26,-000.04,0000.14,0000.25,0000.12,-000.19,18.0,24.3,03.2,02.1,0667.6,31.0
2021-06-21T10:57:00Z,00000200,40000000,,,,,,,-000.54,-000.51,-000.37,18.1,24.4,02.5,01.7,0667.6,31.0
2021-06-21T10:58:00Z,00000200,60000000,,,,,,,0000.45,0000.20,0000.31,17.8,24.4,02.9,01.9,0666.6,31.0
2021-06-21T10:59:00Z,00000200,20000000,,,,,,,-000.19,0000.28,-000.01,17.8,24.5,02.9,01.9,0666.6,31.0
